{"data":{"norad_id":37207,"epoch":"2026-05-25T00:50:36.291264Z","epoch_age_seconds":78852,"freshness":"FRESH","line1":"1 37207U 10056B   26145.03514226 -.00000353  00000+0  00000+0 0  9992","line2":"2 37207   0.0507 240.8592 0000601 279.3058 204.9509  1.00272690 51860","mean_motion":1.0027269,"eccentricity":6.01e-5,"inclination_deg":0.0507,"raan_deg":240.8592,"arg_perigee_deg":279.3058,"mean_anomaly_deg":204.9509,"bstar":0,"rev_number":5186,"period_min":1436.0839426967,"perigee_km":35783.807173603,"apogee_km":35788.87534389,"semimajor_km":42164.478258746,"source":"CELESTRAK","updated_at":"2026-05-25T13:38:13.895834Z"}}